Location: Buttermere
(51.3333°N, 1.5167°W)
Time: 13:00:02
(UTC+00:00)

Abrixas rocket - Pass Details

Date: 18 September 2020
Orbit: 329 x 336 km, 48.4° (Epoch: 22 October)

Event Time Altitude Azimuth Distance (km) Brightness Sun altitude
Rises 19:31:42 0° 252° (WSW) 2,095 6.7 -12.9°
Reaches altitude 10° 19:33:44 10° 245° (WSW) 1,258 5.3 -13.2°
Maximum altitude 19:36:25 42° 173° (S) 489 2.3 -13.6°
Enters shadow 19:37:11 32° 130° (SE) 592 2.5 -13.7°
